Погода в Бауске

Погода в Бауске : погода сейчас, прогноз погоды и архив. Всё, что Вы хотите узнать о погоде в Бауске!

Поиск расширенной информации на нашем сайте:

Другие новости

Новости СМИ2

Главная страница сайта

Новости сайта

03.07.2017

Напоминаем, что на нашем специализированном сайте Метеоцентр.Азия вы можете получить высокодетализированные автоматические прогнозы погоды по пунктам России, СНГ и мира в авиационном формате (включающие направление и скорость ветра, видимость, явления погоды, количество и форму облачности, нижнюю и верхнюю границу облачности).


Погода в Бауске - сегодня

Время (UTC), дата Ветер
(°,м/с) 
Видим.   Явления Облачность Т
(°С)
Тd
(°С)
f(%) Тe
(°С)
Pmin
(гПа)
dP
(гПа)
Po
(мм)
O2
(г/м3)
Тmin Tmax R s Состояние
почвы
21 16.10.17 270 (З) 4-6  н/о    н/о 
+12.6 +11.3 92 +15  1016.8  1.5  760  291           
00 17.10.17 240 (ЮЗ) 3-4  н/о    н/о 
+10.7 +10.3 97 +11  1017.3  0.5  760  293           
03 17.10.17 230 (ЮЗ) 2-3  н/о    н/о 
+9.9 +9.7 99 +11  1018.3  0.9  761  294           
06 17.10.17 270 (З) 3-5  н/о    н/о 
+11 +10.5 97 +13  1019.4  1.2  762  293           
09 17.10.17 210 (ЮЗ) 4-7  н/о    н/о 
+12.6 +11.2 91 +14  1018.4  -1.1  761  291           
12 17.10.17 200 (Ю) 6-8  н/о    н/о 
+14.4 +11.6 83 +17  1016.1  -2.2  759  288           
15 17.10.17 200 (Ю) 7-10  н/о    н/о 
+13.9 +11.7 87 +16  1013.2  -2.8  757  288           
18 17.10.17 230 (ЮЗ) 5-8  н/о    н/о 
+15.2 +13.1 87 +20  1011.7  -1.5  756  286           
00 18.10.17 240 (ЮЗ) 4-6  н/о    н/о 
+11.8 +9.6 86 +12  1010.5  -0.5  755  290           
03 18.10.17 220 (ЮЗ) 4-5  н/о    н/о 
+10.7 +8.9 89 +10  1009.4  -1.1  754  291           
06 18.10.17 230 (ЮЗ) 4-7  н/о    н/о 
+11 +8.7 86 +10  1009.2  -0.2  754  291           
09 18.10.17 250 (З) 6-12  н/о    н/о 
+12.9 +9.4 79 +12  1009.8  0.6  755  289           
12 18.10.17 250 (З) 5-7  н/о    н/о 
+12.4 +10.9 91 +14  1010.7  0.9  755  289           
15 18.10.17 310 (СЗ) 4-6  н/о    н/о 
+10.7 +10 95 +11  1012  1.3  756  291           
18 18.10.17 350 (С) 4-5  н/о    н/о 
+9.4 +8.1 92 +8  1014.1  2.1  758  294           
21 18.10.17 290 (З) 2-3  н/о    н/о 
+5.9 +5 94 +6  1015.7  1.6  759  299           
00 19.10.17 280 (З) 3-3  н/о    н/о 
+4.6 +3.9 95 +3  1017  1.2  760  301           
03 19.10.17 250 (З) 2-2  н/о    н/о 
+4.1 +3.6 97 +4  1017.7  0.7  760  301           
06 19.10.17 220 (ЮЗ) 1-1  н/о    н/о 
+4.1 +3.6 97 +5  1018.9  1.2  761  302           
12 19.10.17 290 (З) 2-2  н/о    н/о 
+9.7 +6.3 79 +10  1020.4  0.3  763  296           
15 19.10.17 280 (З) 1-1  н/о    н/о 
+8.6 +5.2 79 +10  1020.5  0.1  763  297           
18 19.10.17 180 (Ю) 1-1  н/о    н/о 
+4.5 +4.2 98 +5  1021.4  0.8  763  302           
21 19.10.17 080 (В) 1-1  н/о    н/о 
+2.4 +2.3 99 +3  1022.2  0.7  764  305           
00 20.10.17 тихо () -1  н/о    н/о 
+1.3 +0.9 97 +1  1022.8  0.6  764  306           
03 20.10.17 140 (ЮВ) 1-2  н/о    н/о 
+0.3 +0.1 99 +1  1022.9  0.1  764  308           
Время (UTC), дата Ветер
(°,м/с) 
Видим.   Явления Облачность Т
(°С)
Тd
(°С)
f(%) Тe
(°С)
Pmin
(гПа)
dP
(гПа)
Po
(мм)
O2
(г/м3)
Тmin Tmax R s Состояние
почвы

Для получения пояснительной информации подведите курсор к названию столбца.

ПОГОДА в Бауске - архив

Всё, что Вы хотите узнать о погоде в Бауске - удобно и подробно!

Выберите нужную дату (начиная с 1 января 2015* года) и нажмите кнопку "Найти".
Будут отображены архивные сводки погоды по пункту Бауска, начиная с указанной даты.


Отображать данные в формате CSV (для использования в таблицах Excel)


Внимание! Наш архив погоды предназначен исключительно для личного некоммерческого использования в познавательных целях. Если Вам необходимы официальные справки о состоянии погоды (для производственных, юридических, коммерческих и т.п. целей), обращайтесь в органы Росгидромета.

*Примечание: данная дата относится к архиву по метеостанциям СССР (Россия, СНГ, Балтия).
Архив по метеостанциям Зарубежной Европы и Азии (кроме Китая) хранится 10 дней, по другим регионам земного шара (Китай, Африка, Америка, Австралия, Океания) - 1 день.

Бауска - район местоположения метеостанции


Название, широта, долгота, высота метеостанции:
Бауска 56.4°ш. 24.2°д. 33 м над ур. моря [Латвия]

Дополнительная информация

В oтличие oт бoльшинства пoгoдных сайтoв мы публикуем пoдрoбную метеoинфoрмацию в детальнoм прoфессиoнальнoм фoрмате.

Характеристики температуры и влажнoсти вoздуха измеряются на высoте 2 м в тени вдали oт зданий и деревьев.
Скoрoсть ветра измеряется на высoте 10 м (на урoвне рoста челoвека скoрoсть ветра ниже в 1.5-2 раза). Если метеoстанция нахoдится в гoрoде или в лесу, тo скoрoсть ветра занижена на 2-4 м/с пo сравнению с oткрытым местoм. Скoрoсть ветра над акватoриями крупных рек и oзёр, а также на вершинах хoлмoв на 2-5 м/с выше, чем в oбычных услoвиях.
Атмoсфернoе давление в разных тoчках местнoсти мoжет значительнo oтличаться oт давления на метеoстанции, в зависимoсти oт услoвий рельефа (при пoдъёме на 10 м давление пoнижается примернo на 1 мм рт.ст.).